W5UE Weather Reports


Display with metric or nautical units.
time (UTC)temp
F
wind
direction
speed
MPH
gust
MPH
rain 1hr
in
rain 24hr
in
rain mn
in
humidity
%
barometer
mb
20180718045222 74 167 0.0 0.0 0.00 0.08 0.08 100 1013.6
20180718043720 74 167 0.0 0.0 0.00 0.08 0.08 100 1013.9
20180718042220 74 167 0.0 0.0 0.00 0.08 0.08 100 1013.9
20180718040720 74 167 0.0 0.0 0.00 0.08 0.08 100 1014.0
20180718035222 75 167 0.0 0.0 0.00 0.08 0.08 100 1014.1
20180718033719 75 167 0.0 0.0 0.00 0.08 0.08 100 1014.0
20180718032221 75 167 0.0 0.0 0.00 0.08 0.08 100 1013.8
20180718030719 75 167 0.0 0.0 0.00 0.08 0.08 100 1013.5
20180718025218 76 167 0.0 0.0 0.00 0.08 0.08 100 1013.4
20180718023718 76 167 0.0 0.0 0.00 0.08 0.08 100 1013.2
20180718022218 76 167 0.0 0.0 0.00 0.08 0.08 100 1012.9
20180718020720 76 167 0.0 0.0 0.00 0.08 0.08 100 1012.9
20180718015217 76 167 0.0 0.0 0.00 0.08 0.08 100 1012.8
20180718013715 77 167 0.0 0.0 0.00 0.08 0.08 100 1012.9
20180718012215 77 167 0.0 0.0 0.00 0.08 0.08 100 1012.9
20180718010716 77 167 0.0 0.0 0.00 0.08 0.08 100 1013.0
20180718005216 78 167 0.0 0.0 0.00 0.08 0.08 100 1013.0
20180718003713 78 167 0.0 0.0 0.00 0.08 0.08 100 1013.1
20180718002210 78 167 0.0 0.0 0.00 0.08 0.08 100 1013.4
20180718000709 77 145 0.0 0.0 0.04 0.08 0.08 100 1013.4
20180717235211 77 132 0.0 7.0 0.07 0.08 0.08 100 1013.7
20180717233708 79 108 0.0 6.0 0.07 0.08 0.08 100 1013.6
20180717232209 81 130 0.0 0.0 0.07 0.08 0.08 95 1013.7
20180717230708 85 39 0.0 0.0 0.03 0.04 0.04 88 1013.7
20180717225207 86 198 0.0 2.0 0.00 0.11 0.01 84 1013.7
20180717223705 86 317 0.0 3.0 0.00 0.11 0.01 82 1013.6
20180717222205 87 189 0.0 3.0 0.00 0.11 0.01 79 1013.6
20180717220706 87 183 0.0 3.0 0.00 0.11 0.01 81 1013.4
20180717215205 87 325 0.0 0.0 0.00 1.06 0.01 80 1013.6
20180717213703 87 199 0.0 0.0 0.00 1.06 0.01 82 1013.6
20180717212204 87 277 0.0 5.0 0.00 1.06 0.01 80 1013.7
20180717210703 87 202 0.0 5.0 0.00 1.06 0.01 80 1013.6
20180717205201 87 208 0.0 4.0 0.00 1.06 0.01 79 1013.4
20180717203702 86 11 0.0 7.0 0.00 1.06 0.01 82 1013.4
20180717202203 87 154 0.0 5.0 0.00 1.06 0.01 83 1013.7
20180717200702 87 317 1.0 4.0 0.00 1.06 0.01 82 1013.6
20180717195201 87 235 0.0 4.0 0.00 1.06 0.01 80 1013.9
20180717193702 87 34 0.0 8.0 0.00 1.06 0.01 83 1013.6
20180717192159 87 190 1.0 7.0 0.00 1.06 0.01 81 1013.9
20180717190658 87 235 0.0 5.0 0.00 1.06 0.01 79 1014.3
20180717185157 86 79 0.0 8.0 0.00 1.06 0.01 85 1014.2
20180717183659 86 312 0.0 13.0 0.00 1.06 0.01 81 1014.2
20180717182155 86 25 4.0 12.0 0.00 1.06 0.01 79 1014.0
20180717180656 87 40 2.0 10.0 0.00 1.06 0.01 79 1014.3
20180717175154 87 11 0.0 7.0 0.00 1.06 0.01 79 1014.7
20180717173654 87 51 0.0 3.0 0.00 1.06 0.01 79 1014.8
20180717172152 86 22 1.0 10.0 0.00 1.06 0.01 78 1014.9
20180717170652 86 11 1.0 7.0 0.00 1.06 0.01 83 1015.1
20180717165148 85 258 0.0 4.0 0.00 1.06 0.01 84 1015.2
20180717163649 85 13 3.0 8.0 0.00 1.06 0.01 83 1015.2
20180717162149 84 316 1.0 5.0 0.00 1.06 0.01 90 1015.2
20180717160647 83 319 1.0 5.0 0.00 1.06 0.01 89 1015.2
20180717155143 83 347 0.0 6.0 0.00 1.06 0.01 91 1015.2
20180717153641 83 19 0.0 6.0 0.00 1.06 0.01 96 1015.1
20180717152137 81 9 0.0 0.0 0.00 1.06 0.01 99 1015.1
20180717150637 80 254 0.0 1.0 0.00 1.06 0.01 99 1015.1
20180717145137 80 231 0.0 4.0 0.00 1.06 0.01 100 1015.1
20180717143638 80 293 0.0 4.0 0.00 1.06 0.01 100 1015.2
20180717142133 80 211 0.0 8.0 0.00 1.06 0.01 100 1015.1
20180717140632 79 322 0.0 0.0 0.01 1.06 0.01 100 1015.0
20180717135129 77 313 0.0 3.0 0.01 1.06 0.01 100 1015.1
20180717133629 76 211 0.0 3.0 0.01 1.06 0.01 100 1015.2
20180717132125 76 204 0.0 4.0 0.01 1.06 0.01 100 1015.1
20180717130625 75 153 0.0 0.0 0.00 1.05 0.00 100 1015.0
20180717125121 74 153 0.0 0.0 0.00 1.05 0.00 100 1015.0
20180717123620 73 191 0.0 0.0 0.00 1.05 0.00 100 1015.2
20180717122118 73 198 0.0 0.0 0.00 1.05 0.00 100 1015.1
20180717120617 72 198 0.0 0.0 0.00 1.05 0.00 100 1015.1
20180717115116 71 198 0.0 0.0 0.00 1.05 0.00 100 1014.9
20180717113616 71 198 0.0 0.0 0.00 1.05 0.00 100 1014.7
20180717112116 70 198 0.0 0.0 0.00 1.05 0.00 100 1014.5
20180717110616 70 198 0.0 0.0 0.00 1.05 0.00 100 1014.5
20180717105114 70 198 0.0 0.0 0.00 1.05 0.00 100 1014.3
20180717103613 70 198 0.0 0.0 0.00 1.05 0.00 100 1014.3
20180717102112 70 198 0.0 0.0 0.00 1.05 0.00 100 1014.2
20180717100613 70 198 0.0 0.0 0.00 1.05 0.00 100 1014.3
20180717095111 70 198 0.0 0.0 0.00 1.05 0.00 100 1014.2
20180717093612 70 198 0.0 0.0 0.00 1.05 0.00 100 1014.2
20180717092110 70 198 0.0 0.0 0.00 1.05 0.00 100 1014.1
20180717090613 70 198 0.0 0.0 0.00 1.05 0.00 100 1014.1
20180717085108 70 198 0.0 0.0 0.00 1.05 0.00 100 1014.1
20180717083608 70 198 0.0 0.0 0.00 1.05 0.00 100 1014.0
20180717082108 70 198 0.0 0.0 0.00 1.05 0.00 100 1014.0
20180717080609 71 198 0.0 0.0 0.00 1.05 0.00 100 1014.0
20180717075107 71 198 0.0 0.0 0.00 1.05 0.00 100 1013.9
20180717073606 71 198 0.0 0.0 0.00 1.05 0.00 100 1013.7
20180717072105 71 198 0.0 0.0 0.00 1.05 0.00 100 1013.9
20180717070604 71 198 0.0 0.0 0.00 1.05 0.00 100 1014.0
20180717065106 71 174 0.0 0.0 0.00 1.05 0.00 100 1014.0
20180717063602 70 193 0.0 0.0 0.00 1.05 0.00 100 1014.1
20180717062101 70 193 0.0 0.0 0.00 1.05 0.00 100 1014.2
20180717060559 70 193 0.0 0.0 0.00 1.05 0.00 100 1014.3
20180717055100 70 193 0.0 0.0 0.00 1.06 0.00 100 1014.4
20180717053555 70 193 0.0 0.0 0.00 1.06 0.00 100 1014.7
20180717052053 71 193 0.0 0.0 0.00 1.06 0.00 100 1014.9
20180717050550 71 193 0.0 0.0 0.00 1.06 0.00 100 1015.2